www.pogodaiklimat.ru

Погода и климат >> Архив погоды >> Сербия >> Зренянин


ПОГОДА в Зренянине

  • Прогноз погоды в Зренянине
  • Монитор погоды в Зренянине

АРХИВ ПОГОДЫ в Зренянине

Время (UTC), дата Ветер
(напр.,м/с)
 
Видим.   Явления Облачность Т
(С)
Тd
(С)
f
(%)
Тe
(С)
Тes
(С)
Комфортность P
(гПа)
Po
(гПа)
Тmin
(С)
Tmax
(С)
R
(мм)
R24
(мм)
S
(см)
13 13.08 Ю 2 20 км ясно +34.1 +15.8 34 +37 +48 очень
душно
1010.1 1001.0
14 13.08 ЮВ 2 20 км ясно +34.9 +16.3 33 +37 +45 очень
душно
1009.7 1000.6
15 13.08 Ю 1 20 км 3/0
[Ci fib]
+34.6 +16.1 33 +37 +42 очень
душно
1009.4 1000.3
16 13.08 ЮЗ 1 20 км 6/0
[Ci sp]
+34.3 +16.3 34 +37 +39 очень
душно
1009.3 1000.2
17 13.08 З 4 20 км 8/4 1000 м
[Sc Ci sp]
+31.1 +19.7 51 +37 +37 очень
душно
1009.3 1000.1
18 13.08 СЗ 3 20 км 8/4 1000 м
[Sc Ci sp]
+28.6 +19.1 56 +34 +34 очень
душно
1009.7 1000.5 +34.9
19 13.08 СЗ 2 20 км 9/1 1000 м
[Sc Cs]
+26.8 +17.5 57 +31 +31 душно 1010.4 1001.1
20 13.08 З 2 20 км 9/5 1000 м
[Sc Ci sp]
+25.0 +18.4 67 +30 +30 душно 1011.2 1001.8
21 13.08 З 3 20 км 8/4 1000 м
[Sc Ci sp]
+23.5 +18.4 73 +28 +28 душно 1011.1 1001.7
22 13.08 З 2 20 км 5/0
[Ci sp]
+22.1 +17.4 75 +27 +27 душно 1010.5 1001.0
23 13.08 СЗ 2 20 км 5/0
[Ci sp]
+20.7 +17.9 84 +25 +25 комфорт 1009.8 1000.3
00 14.08 З 3 20 км 4/0
[Ci sp]
+20.5 +10.0 51 +22 +22 комфорт 1010.0 1000.5
01 14.08 З 2 20 км 6/0
[Ac trans Ci sp]
+19.6 +17.9 90 +23 +23 комфорт 1010.0 1000.5
03 14.08 СЗ 2 20 км ясно +18.8 +18.0 95 +21 +21 комфорт 1010.3 1000.7
06 14.08 СЗ 4 20 км 10/10 1000 м
[Sc]
+19.7 +16.1 80 +22 +22 комфорт 1011.8 1002.2 +18.8
07 14.08 СЗ 4 20 км 10/10 1000 м
[Sc]
+19.5 +17.0 85 +22 +22 комфорт 1013.4 1003.8
08 14.08 СЗ 5 20 км 10/10 1000 м
[Sc]
+18.6 +17.0 90 +19 +19 1014.3 1004.7
09 14.08 СЗ 3 20 км 10/10 1000 м
[Sc]
+18.4 +16.8 90 +19 +19 1014.4 1004.8
10 14.08 З 3 20 км 10/10 1000 м
[Sc]
+18.9 +17.3 90 +20 +20 1014.3 1004.7
11 14.08 З 4 20 км 10/10 1000 м
[Sc]
+20.3 +18.2 88 +24 +24 комфорт 1014.3 1004.7
12 14.08 З 5 20 км 10/10 1000 м
[Sc]
+19.9 +17.9 88 +23 +23 комфорт 1014.5 1004.9
13 14.08 З 5 20 км 10/10 1000 м
[Sc]
+19.2 +17.0 87 +21 +21 комфорт 1014.8 1005.2
14 14.08 С 2 20 км 10/10 1000 м
[Sc]
+19.1 +17.2 89 +21 +21 комфорт 1014.2 1004.6
15 14.08 СЗ 3 20 км 10/10
[Sc]
+19.0 +17.0 88 +21 +21 комфорт 1014.6 1005.0
16 14.08 СЗ 3 20 км 10/10 1000 м
[Sc]
+18.9 +16.1 84 +20 +20 1015.1 1005.5
17 14.08 СЗ 3 20 км 9/9 1000 м
[Sc]
+19.2 +15.7 80 +21 +21 комфорт 1015.1 1005.5
18 14.08 З 2 20 км 9/9 1000 м
[Cu Sc]
+18.9 +15.9 83 +21 +21 комфорт 1015.3 1005.7 +20.7
19 14.08 СЗ 2 20 км 9/9 1000 м
[Sc]
+18.3 +15.6 84 +19 +19 1015.3 1005.6
20 14.08 З 2 20 км 9/9 1000 м
[Sc]
+17.5 +16.4 93 +18 +18 1015.5 1005.8
21 14.08 З 2 20 км 9/9 1000 м
[Sc]
+17.4 +16.4 94 +18 +18 1015.6 1005.9
22 14.08 С 3 20 км 10/10 1000 м
[Sc]
+17.8 +15.2 85 +18 +18 1015.9 1006.2
23 14.08 С 2 20 км 10/10 1000 м
[Sc]
+17.4 +15.1 86 +18 +18 1016.0 1006.3
00 15.08 С 2 20 км 9/9 1000 м
[Sc]
+17.2 +14.2 83 +18 +18 1015.9 1006.2
01 15.08 С 2 20 км 9/5 1000 м
[Sc Ac trans]
+16.4 +14.3 87 +16 +16 1015.9 1006.2
02 15.08 С 2 20 км 9/5 1000 м
[Sc Ac trans]
+16.0 +14.0 88 +16 +16 1015.7 1006.0
03 15.08 С 1 20 км 4/4 1000 м
[Sc]
+14.4 +13.0 91 +15 +15 1015.8 1006.0
04 15.08 СЗ 1 20 км 5/4 1000 м
[Sc Ci sp]
+13.0 +12.3 96 +13 +13 1016.0 1006.2
05 15.08 СЗ 2 20 км 4/1 1000 м
[Sc Ci sp]
+13.2 +12.8 97 +12 +13 1016.3 1006.5
06 15.08 СЗ 2 20 км 6/1 1000 м
[Sc Ci sp]
+15.6 +14.4 93 +15 +18 1016.4 1006.7 +12.8
07 15.08 С 2 20 км 6/1 1000 м
[Cu hum Ci sp]
+18.2 +12.1 68 +19 +24 1016.4 1006.7
08 15.08 С 3 20 км 6/3 1000 м
[Cu hum Ci sp]
+19.4 +10.7 57 +21 +26 комфорт 1016.3 1006.7
09 15.08 С 3 20 км 6/5 1000 м
[Cu med, cong Ci fib]
+21.0 +10.8 52 +23 +29 комфорт 1016.0 1006.4
10 15.08 СЗ 4 20 км 5/5 1000 м
[Cu med, cong]
+22.4 +11.6 50 +25 +30 комфорт 1015.4 1005.9
11 15.08 СЗ 4 20 км 3/3 1000 м
[Cu med, cong]
+23.6 +8.9 39 +24 +32 комфорт 1015.1 1005.6
12 15.08 СЗ 3 20 км 1/1 1000 м
[Cu med, cong]
+24.4 +9.1 38 +25 +36 комфорт 1014.6 1005.1
13 15.08 С 4 20 км 3/3 1000 м
[Cu med, cong]
+25.2 +9.1 36 +26 +31 жарко 1014.0 1004.6
14 15.08 СЗ 4 20 км 4/4 1000 м
[Cu med, cong]
+25.4 +8.0 33 +26 +29 жарко 1013.8 1004.4
15 15.08 С 3 20 км 5/5 1000 м
[Cu med, cong]
+25.5 +6.9 30 +25 +27 комфорт 1013.6 1004.2
16 15.08 С 3 20 км 4/4 1000 м
[Cu med, cong]
+25.0 +7.6 33 +25 +26 комфорт 1013.6 1004.2
17 15.08 С 2 20 км 1/1 1000 м
[Cu med, cong]
+23.8 +6.5 33 +24 +24 комфорт 1013.8 1004.3
18 15.08 С 1 20 км 1/1 1000 м
[Sc diur, vesp]
+20.6 +8.6 46 +23 +23 комфорт 1014.2 1004.6 +25.9
19 15.08 С 1 20 км 1/1 1000 м
[Sc diur, vesp]
+16.2 +9.4 64 +17 +17 1014.8 1005.1
20 15.08 СЗ 1 20 км ясно +15.9 +9.3 65 +17 +17 1015.2 1005.5
21 15.08 С 1 20 км ясно +14.4 +9.5 72 +15 +15 1015.4 1005.6
22 15.08 С 1 20 км 3/0
[Ac trans Ci sp]
+13.4 +9.6 78 +14 +14 1015.5 1005.7
23 15.08 З 1 20 км 4/0
[Ac trans Ci sp]
+12.3 +9.4 82 +12 +12 1015.6 1005.7
00 16.08 З 1 20 км 4/0
[Ac trans]
+11.9 +9.5 85 +12 +12 1015.5 1005.6
01 16.08 З 1 20 км 3/0
[Ac trans]
+11.7 +9.5 86 +12 +12 1015.5 1005.6
02 16.08 З 1 20 км 1/0
[Ac trans]
+11.4 +9.6 89 +11 +11 1015.7 1005.8
03 16.08 З 1 20 км ясно +11.5 +10.0 90 +11 +11 1015.7 1005.8
04 16.08 З 1 20 км 1/0
[Ac trans]
+11.0 +9.7 92 +11 +11 1015.9 1006.0
05 16.08 З 1 20 км ясно +12.6 +11.0 90 +13 +14 1015.8 1006.0
06 16.08 С 1 20 км ясно +16.5 +11.7 73 +17 +21 1016.6 1006.9 +11.0
07 16.08 З 1 20 км ясно +19.3 +10.3 56 +21 +29 комфорт 1015.6 1006.9
08 16.08 С 2 20 км ясно +22.1 +9.7 45 +24 +34 комфорт 1016.6 1007.1
09 16.08 СЗ 2 20 км 1/1 1000 м
[Cu hum]
+23.8 +9.2 39 +25 +37 комфорт 1016.5 1007.0
10 16.08 З 3 20 км 4/4 1000 м
[Cu hum]
+15.0 +9.5 70 +14 +22 1016.2 1006.8
11 16.08 З 3 20 км 6/6 1000 м
[Cu Sc]
+25.4 +9.4 36 +26 +31 жарко 1015.8 1006.4
12 16.08 З 3 20 км 9/9 1000 м
[Cu Sc]
+24.9 +10.1 39 +26 +27 жарко 1015.4 1006.0
13 16.08 З 3 20 км 8/8 1000 м
[Cu Sc]
+25.0 +10.6 40 +26 +28 жарко 1015.3 1005.9
14 16.08 З 4 20 км 9/9 1000 м
[Cu Sc]
+25.3 +11.3 42 +27 +27 жарко 1015.2 1005.8
15 16.08 З 3 20 км 9/9 1000 м
[Cu Sc]
+24.6 +10.9 42 +26 +26 жарко 1015.1 1005.7
16 16.08 СЗ 5 20 км 9/9 1000 м
[Cu Sc]
+22.3 +13.4 57 +25 +25 комфорт 1015.6 1006.1
17 16.08 СЗ 3 20 км 9/9 1000 м
[Sc]
+21.5 +13.4 60 +24 +24 комфорт 1015.6 1006.1
18 16.08 З 3 20 км 9/9
[Sc]
+20.9 +14.7 68 +24 +24 комфорт 1015.9 1006.3 +26.6
19 16.08 З 2 20 км 9/9 1000 м
[Sc]
+20.0 +14.7 72 +23 +23 комфорт 1016.6 1007.0
20 16.08 З 2 20 км 9/9 1000 м
[Sc]
+19.2 +14.7 75 +21 +21 комфорт 1016.8 1007.2
21 16.08 З 2 20 км 9/9 1000 м
[Sc]
+18.8 +15.3 80 +20 +20 1017.0 1007.4
22 16.08 З 2 20 км 9/9 1000 м
[Sc]
+18.3 +15.7 85 +19 +19 1017.2 1007.5
23 16.08 З 2 20 км 8/8 1000 м
[Sc]
+17.7 +15.4 86 +18 +18 1017.1 1007.4
00 17.08 З 2 20 км 4/4 1000 м
[Sc]
+16.2 +14.4 89 +16 +16 1016.8 1007.1
01 17.08 З 2 20 км 1/1 1000 м
[Sc]
+15.5 +13.8 90 +15 +15 1016.8 1007.1
02 17.08 З 2 20 км ясно +15.2 +13.7 91 +15 +15 1016.8 1007.0
03 17.08 З 2 20 км ясно +14.6 +13.6 94 +14 +14 1016.9 1007.1
04 17.08 З 2 20 км ясно +14.4 +13.7 96 +14 +14 1017.1 1007.3
05 17.08 З 2 20 км ясно +15.4 +14.7 96 +15 +16 1017.5 1007.7
06 17.08 З 2 20 км ясно +17.7 +15.6 88 +18 +22 1017.6 1007.9 +14.4
07 17.08 20 км ясно +20.0 +15.5 75 1017.6 1008.0
08 17.08 З 2 20 км 1/1 1000 м
[Cu med, cong]
+21.4 +14.5 65 +24 +34 комфорт 1017.8 1008.2
09 17.08 З 2 20 км 1/1 1000 м
[Cu med, cong]
+23.4 +13.2 53 +27 +39 душно 1017.6 1008.1
10 17.08 З 3 20 км 3/1 1000 м
[Cu med, cong Ci fib]
+24.7 +13.3 49 +27 +38 жарко 1017.6 1008.1
11 17.08 З 3 20 км 4/3 1000 м
[Cu med, cong Ci sp]
+25.5 +12.2 44 +27 +36 жарко 1017.0 1007.6
12 17.08 З 2 20 км 6/5 1000 м
[Cu med, cong Ci sp]
+26.3 +12.4 42 +28 +35 жарко 1016.4 1007.0
13 17.08 З 4 20 км 8/3 1000 м
[Cu med, cong Ac trans Ci sp]
+27.5 +12.8 40 +29 +32 жарко 1015.7 1006.4
14 17.08 З 3 20 км 6/1 1000 м
[Cu med, cong Ac trans Ci sp]
+27.0 +13.1 42 +29 +33 жарко 1015.6 1006.2
15 17.08 З 3 20 км 6/1 1000 м
[Cu med, cong Ac trans Ci sp]
+26.7 +12.3 41 +28 +30 жарко 1015.6 1006.2
16 17.08 20 км 5/1 1000 м
[Cu med, cong Ac trans Ci fib]
+26.6 +12.6 42 1015.4 1006.0
17 17.08 СЗ 1 20 км 4/1 1000 м
[Sc diur, vesp Ac trans Ci fib]
+26.6 +13.2 44 +29 +29 жарко 1015.4 1006.0
18 17.08 З 1 20 км 4/1 1000 м
[Sc diur, vesp Ac trans Ci fib]
+23.2 +13.7 55 +27 +27 душно 1015.7 1006.8 +28.1
19 17.08 ЮЗ 1 20 км 1/0
[Ci fib]
+20.7 +14.8 69 +25 +25 комфорт 1016.2 1006.6
20 17.08 З 1 20 км 3/0
[Ac trans]
+19.4 +14.0 71 +22 +22 комфорт 1016.2 1006.6
21 17.08 ЮЗ 1 20 км 1/0
[Ac trans]
+17.6 +14.2 80 +19 +19 1016.3 1006.6
22 17.08 ЮЗ 1 20 км 3/0
[Ac trans Ci fib]
+14.6 +14.3 98 +15 +15 1016.3 1006.7
23 17.08 З 1 20 км ясно +15.7 +13.7 88 +16 +16 1016.5 1006.8
00 18.08 З 1 20 км ясно +15.8 +14.1 90 +16 +16 1016.5 1006.8
01 18.08 СВ 1 20 км 3/0
[]
+14.6 +13.6 94 +15 +15 1016.4 1006.6
02 18.08 ЮЗ 1 20 км ясно +14.1 +13.4 96 +14 +14 1016.3 1006.5
03 18.08 Ю 1 20 км ясно +13.5 +13.0 97 +14 +14 1016.4 1006.6
04 18.08 Ю 1 20 км 3/0
[Ci sp]
+14.0 +13.3 96 +14 +14 1016.5 1006.7
05 18.08 ЮВ 1 20 км 1/0
[Ci fib]
+15.8 +14.6 93 +16 +18 1016.5 1006.8
06 18.08 ЮВ 1 20 км 3/0
[Ci sp]
+19.9 +12.8 64 +23 +26 комфорт 1016.7 1007.1 +13.4
07 18.08 Ю 2 20 км 4/1 1000 м
[Sc Ac trans Ci sp]
+22.6 +13.6 57 +26 +31 жарко 1016.9 1007.4
08 18.08 Ю 3 20 км 6/0
[Ac trans Ci sp]
+25.0 +12.3 45 +27 +33 жарко 1016.7 1007.3
09 18.08 Ю 3 20 км 6/0
[Ac trans Ci sp]
+26.2 +11.4 40 +27 +36 жарко 1016.7 1007.3
10 18.08 ЮВ 2 20 км 4/0
[Ci sp]
+27.8 +12.4 39 +29 +43 жарко 1016.5 1007.2
11 18.08 В 1 20 км 4/0
[Ci sp]
+28.8 +12.3 36 +30 +46 жарко 1016.3 1007.0
12 18.08 Ю 3 20 км 3/0
[Ci sp]
+29.0 +12.3 36 +30 +41 жарко 1016.1 1006.8
13 18.08 ЮВ 3 20 км 1/0
[Ci fib]
+29.9 +12.3 34 +31 +40 жарко 1015.8 1006.5
14 18.08 ЮВ 3 20 км 1/0
[Ci fib]
+30.1 +11.8 32 +31 +37 жарко 1015.5 1006.2
15 18.08 ЮВ 2 20 км 1/0
[Ci fib]
+30.2 +11.7 32 +31 +35 жарко 1015.2 1005.9
16 18.08 Ю 2 20 км ясно +29.6 +11.5 33 +30 +32 жарко 1015.2 1005.9
17 18.08 ЮВ 1 20 км ясно +28.9 +12.4 36 +30 +30 жарко 1015.1 1005.8
18 18.08 ЮВ 1 20 км ясно +26.6 +12.8 42 +28 +28 жарко 1015.3 1005.9 +30.5
19 18.08 ЮВ 2 20 км ясно +24.6 +12.6 47 +26 +26 жарко 1015.5 1006.1
20 18.08 ЮВ 2 20 км ясно +23.4 +12.6 51 +26 +26 жарко 1015.6 1006.1
21 18.08 ЮВ 2 20 км ясно +22.8 +12.5 52 +26 +26 жарко 1015.6 1006.1
22 18.08 ЮВ 2 20 км ясно +22.3 +11.5 50 +24 +24 комфорт 1015.6 1006.1
23 18.08 Ю 2 20 км ясно +20.6 +11.7 57 +23 +23 комфорт 1015.6 1006.0
00 19.08 ЮВ 2 20 км 1/0
[Ci fib]
+20.6 +12.1 58 +23 +23 комфорт 1015.6 1006.0
01 19.08 Ю 2 20 км ясно +19.7 +12.8 64 +22 +22 комфорт 1015.6 1006.0
02 19.08 ЮВ 2 20 км ясно +19.3 +13.2 68 +21 +21 комфорт 1015.5 1005.9
03 19.08 Ю 2 20 км ясно +19.4 +13.0 66 +21 +21 комфорт 1015.7 1006.1
04 19.08 ЮВ 2 20 км 1/0
[Ci fib]
+18.1 +13.1 73 +19 +19 1016.1 1006.4
05 19.08 ЮВ 2 20 км 1/0
[Ci fib]
+18.6 +13.0 70 +20 +21 1016.4 1006.8
06 19.08 ЮВ 2 20 км 1/0
[Ci fib]
+22.1 +13.2 57 +25 +28 комфорт 1016.3 1006.8 +18.0
07 19.08 ЮВ 2 20 км 1/0
[Ci sp]
+24.4 +13.1 49 +26 +33 жарко 1016.4 1006.9
08 19.08 ЮВ 3 20 км 1/0
[Ci fib]
+27.2 +12.4 40 +29 +37 жарко 1016.3 1006.9
09 19.08 Ю 3 20 км ясно +29.2 +13.5 38 +31 +42 жарко 1016.2 1006.9
10 19.08 ЮВ 3 20 км ясно +31.4 +14.0 35 +33 +45 жарко 1016.3 1007.0
11 19.08 ЮВ 4 20 км ясно +32.0 +12.8 31 +33 +43 жарко 1016.2 1007.0
12 19.08 Ю 2 20 км ясно +32.0 +13.0 31 +33 +47 жарко 1016.1 1006.9
13 19.08 Ю 3 20 км 1/0
[Ci fib]
+32.8 +11.1 27 +33 +42 жарко 1016.2 1007.0
14 19.08 ЮВ 1 20 км 3/0
[Ac trans Ci fib]
+33.2 +11.2 26 +33 +41 жарко 1016.0 1006.8
15 19.08 ЮЗ 1 20 км 1/0
[Ci fib]
+33.4 +11.6 27 +33 +38 жарко 1016.0 1006.8
16 19.08 В 1 20 км 1/0
[Ci fib]
+33.2 +11.5 27 +33 +35 жарко 1015.8 1006.6
17 19.08 СВ 1 20 км 1/0
[Ci fib]
+31.8 +12.3 30 +32 +32 жарко 1015.9 1006.7
18 19.08 СВ 1 20 км 1/0
[Ci fib]
+27.2 +15.3 48 +30 +30 душно 1016.2 1006.8 +34.0
19 19.08 штиль 0 20 км 1/0
[Ci fib]
+24.1 +14.5 55 +27 +27 жарко 1016.6 1007.1
20 19.08 штиль 0 20 км 1/0
[Ci fib]
+22.8 +15.1 62 +27 +27 душно 1016.7 1007.2
21 19.08 В 1 20 км ясно +22.4 +15.3 64 +26 +26 жарко 1016.7 1007.2
22 19.08 СВ 1 20 км ясно +21.0 +15.0 69 +25 +25 комфорт 1017.0 1007.4
23 19.08 В 1 20 км ясно +20.3 +15.0 72 +24 +24 комфорт 1017.1 1007.5
00 20.08 Ю 1 20 км ясно +20.2 +15.1 72 +24 +24 комфорт 1017.2 1007.6
01 20.08 ЮВ 1 20 км ясно +18.6 +14.9 79 +20 +20 1017.2 1007.6
02 20.08 ЮВ 1 20 км ясно +19.6 +15.6 78 +23 +23 комфорт 1017.4 1007.8
03 20.08 В 1 20 км ясно +19.7 +15.7 78 +23 +23 комфорт 1017.5 1007.9
05 20.08 ЮВ 2 20 км 1/0
[Ci fib]
+20.2 +15.8 76 +24 +24 комфорт 1018.3 1008.7
06 20.08 ЮВ 2 20 км ясно +23.5 +15.4 60 +26 +30 жарко 1018.4 1008.9 +17.7
07 20.08 Ю 3 20 км ясно +26.3 +15.1 50 +29 +34 жарко 1018.5 1009.1
08 20.08 Ю 3 20 км ясно +29.5 +14.7 41 +32 +40 душно 1018.6 1009.3
09 20.08 ЮВ 4 20 км ясно +31.1 +14.4 36 +33 +42 душно 1018.6 1009.3
10 20.08 Ю 4 20 км ясно +32.6 +15.3 35 +35 +45 душно 1018.3 1009.1
11 20.08 Ю 3 20 км ясно +33.0 +14.2 32 +34 +47 очень
жарко
1018.2 1009.0
12 20.08 Ю 3 20 км ясно +33.6 +13.8 30 +35 +46 душно 1018.0 1008.8

 

Местоположение метеостанции Зренянин (Сербия): широта 45.37 долгота 20.42 высота над уровнем моря 82 м.

В архиве по умолчанию представлена погода в Зренянине за последнюю неделю. Архивные данные за месяц целиком и за предыдущие месяцы, начиная с января 2011 года, Вы можете получить, выбрав интересующий диапазон дат из раскрывающегося списка и нажав кнопку "Ввод!".


*Определитесь, кто Вы:
робот инопланетянин человек

Внимание! Время в таблицах - всемирное. Для получения местного времени необходимо прибавить поправку, которая равна 1 ч.

Смотрите также архив погоды в соседних городах и на ближайших метеорологических станциях:

Погода в Нови-Саде (Сербия) (45 км)
Погода в Жимболии (Румыния) (51 км)
Погода в Кикинде (Сербия) (54 км)
Погода в Банлоке (Румыния) (55 км)
Погода в Банатски-Карловаце (Сербия) (60 км)
Погода в Белград аэропорту (Сербия) (62 км)
Погода в Белграде (Сербия) (64 км)
Погода в Сремска-Митровице (Сербия) (74 км)
Погода в Вршаце (Сербия) (75 км)
Погода в Тимишоаре (Румыния) (78 км)

Пояснения к столбцам:

Ветер - указаны скорость ветра в м/с - средняя за 10 мин, порывы в срок и между сроками (в фигурных скобках) и направление, откуда дует ветер: С - северный, СВ - северо-восточный, В - восточный, ЮВ - юго-восточный, Ю - южный, ЮЗ - юго-западный, З - западный, СЗ - северо-западный.
Видимость - горизонтальная дальность видимости в метрах или километрах. При видимости от 1 до 10 км при отсутствии осадков обычно наблюдается дымка, при ухудшении видимости до 1 км и менее - туман. В сухую погоду видимость может ухудшаться дымом, пылью или мглою.
Явления - указаны атмосферные явления, наблюдавшиеся в срок или в последний час перед сроком; фигурными скобками обозначены явления, наблюдавшиеся между сроками (за 1-3 часа до срока); квадратными скобками обозначены град или гололедные отложения с указанием их диаметра в мм.
Облачность - указаны через наклонную черту общая и нижняя облачность в баллах и высота нижней границы облаков в метрах; квадратными скобками обозначены формы облаков: Ci - перистые, Cs - перисто-слоистые, Cc - перисто-кучевые, Ac - высококучевые, As - высокослоистые, Sc - слоисто-кучевые, Ns - слоисто-дождевые, Cu - кучевые, Cb - кучево-дождевые. Подробнее классификацию облаков см. в Атласе облаков (PDF).
T - Температура воздуха - температура, измеренная на высоте 2 м над землей.
Td - Температура точки росы - температура, при понижении до которой содержащийся в воздухе водяной пар достигнет насыщения.
f - Относительная влажность воздуха - влажноcть воздуха, измеренная на высоте 2 м над землей.
Te - Эффективная температура - температура, которую ощущает одетый по сезону человек в тени. Характеристика душности погоды. При расчете учитывается влияние влажности воздуха и скорости ветра на теплоощущения человека.
Tes - Эффективная температура на солнце - температура, которую ощущает человек, с поправкой на солнечный нагрев. Характеристика знойности погоды. Зависит от высоты солнца над горизонтом, облачности и скорости ветра. Ночью, в пасмурную погоду, а также при ветре 12 м/с и более поправка равна нулю.
P - Атмосферное давление - приведенное к уровню моря атмосферное давление.
Po - Атмосферное давление - измеренное на уровне метеостанции атмосферное давление.
Tmin - Минимальная температура - минимум температуры воздуха на высоте 2 м над землей.
Tmax - Максимальная температура - максимум температуры воздуха на высоте 2 м над землей.
R - Количество осадков - Количество выпавших осадков за период времени, мм. При наведении курсора мыши на число - период времени, за который выпало указанное количество осадков.
R24 - Количество осадков - Количество выпавших осадков за 24 часа, мм.
S - Снежный покров - Высота снежного покрова, см. При наведении курсора мыши на число - состояние снежного покрова и степень покрытия местности в баллах.